Weather History for SBCY - August, 2013

Change the Weather History Date:

Thursday, August 22, 2013

  Actual Average Record
Temperature  
Mean Temperature 84 °F -  
Max Temperature 98 °F 92 °F 102 °F (1999)
Min Temperature 69 °F 71 °F 50 °F (2011)
Cooling Degree Days 18    
Growing Degree Days 34 (Base 50)    
Moisture  
Dew Point 48 °F    
Average Humidity 31    
Maximum Humidity 56    
Minimum Humidity 8    
Precipitation  
Precipitation 0.00 in - - ()
Sea Level Pressure  
Sea Level Pressure 29.85 in    
Wind  
Wind Speed 4 mph ()    
Max Wind Speed 12 mph    
Max Gust Speed -    
Visibility 12.0 miles    
Events      
Averages and records for this station are not official NWS values.
T = Trace of Precipitation, MM = Missing Value Source: Averaged Metar Reports

Daily Weather History Graph

Daily Weather History Graph

Search for Another Location

Airport or City:

Trip Planner

Search our weather history database for the weather conditions in past years. The results will help you decide how hot, cold, wet, or windy it might be!

Date:

Astronomy

Aug. 22, 2013 Rise Set
Actual Time 5:57 AM AMT 5:37 PM AMT
Civil Twilight 5:35 AM AMT 5:59 PM AMT
Nautical Twilight 5:09 AM AMT 6:24 PM AMT
Astronomical Twilight 4:44 AM AMT 6:49 PM AMT
Moon 7:17 PM AMT (8/22) 6:50 AM AMT (8/22)
Length of Visible Light 12h 24m
Length of Day
11h 40m
Waning Gibbous, 97% of the Moon is Illuminated
Aug 22
Waning Gibbous
Aug 28
Last Quarter
Sep 5
New
Sep 12
First Quarter
Sep 19
Full

Hourly Weather History & Observations

Time (AMT) Temp. Dew Point Humidity Pressure Visibility Wind Dir Wind Speed Gust Speed Precip Events Conditions
12:00 AM 75.2 °F 48.2 °F 38% 29.86 in - NE 2.3 mph - N/A   Clear
1:00 AM 73.4 °F 48.2 °F 41% 29.86 in - NE 3.5 mph - N/A   Clear
2:00 AM 75.2 °F 48.2 °F 38% 29.83 in - ENE 3.5 mph - N/A   Clear
3:00 AM 71.6 °F 50.0 °F 46% 29.83 in - East 4.6 mph - N/A   Clear
4:00 AM 69.8 °F 53.6 °F 56% 29.83 in - SW 2.3 mph - N/A   Clear
5:00 AM 71.6 °F 51.8 °F 50% 29.86 in - West 4.6 mph - N/A   Clear
6:00 AM 69.8 °F 51.8 °F 53% 29.89 in - NNW 5.8 mph - N/A   Clear
7:00 AM 73.4 °F 51.8 °F 47% 29.89 in - WNW 5.8 mph - N/A   Clear
8:00 AM 77.0 °F 53.6 °F 44% 29.92 in - NW 6.9 mph - N/A   Clear
9:00 AM 84.2 °F 51.8 °F 33% 29.95 in - NNW 8.1 mph - N/A   Clear
10:00 AM 91.4 °F 50.0 °F 24% 29.95 in - NE 4.6 mph - N/A   Clear
11:00 AM 95.0 °F 44.6 °F 18% 29.92 in - North 11.5 mph - N/A   Clear
12:00 PM 96.8 °F 44.6 °F 17% 29.89 in - NE 6.9 mph - N/A   Clear
1:00 PM 96.8 °F 42.8 °F 16% 29.86 in - South 2.3 mph - N/A   Clear
2:00 PM 98 °F 42 °F 8% 29.78 in 12 mi NW 8.1 mph - -  
2:00 PM 98.6 °F 42.8 °F 15% 29.80 in - NW 8.1 mph - N/A   Clear
3:00 PM 98.6 °F 42.8 °F 15% 29.77 in - North 4.6 mph - N/A   Clear
4:00 PM 96.8 °F 42.8 °F 16% 29.77 in - NNE 4.6 mph - N/A   Clear
5:00 PM 95.0 °F 44.6 °F 18% 29.77 in - NNW 3.5 mph - N/A   Clear
6:00 PM 87.8 °F 46.4 °F 24% 29.77 in - Calm Calm - N/A   Clear
7:00 PM 86.0 °F 48.2 °F 27% 29.80 in - ENE 4.6 mph - N/A   Clear
8:00 PM 85 °F 47 °F 17% 29.81 in 12 mi ENE 2.3 mph - -  
8:00 PM 84.2 °F 46.4 °F 27% 29.83 in - ENE 2.3 mph - N/A   Clear
9:00 PM 80.6 °F 48.2 °F 32% 29.83 in - NE 3.5 mph - N/A   Clear
10:00 PM 78.8 °F 50.0 °F 36% 29.86 in - NE 2.3 mph - N/A   Clear
11:00 PM 75.2 °F 51.8 °F 44% 29.86 in - SSW 2.3 mph - N/A   Clear